Station CNDO1 - 9063063 - Cleveland, OH Image indicating link to RSS feed of recent meteorological observations for station CNDO1


Conditions at CNDO1 as of
(11:18 pm EDT on 05/26/2024)
0318 GMT on 05/27/2024:
     

Click on the graph icon in the table below to see a time series plot of the last five days of that observation.

5-day plot - Wind Direction Wind Direction (WDIR):SSW ( 210 deg true )
5-day plot - Wind Speed Wind Speed (WSPD):4.1 m/s
5-day plot - Wind Gust Wind Gust (GST):6.7 m/s
5-day plot - Atmospheric Pressure Atmospheric Pressure (PRES):1001.0 mb
5-day plot - Air Temperature Air Temperature (ATMP): 19.8 °C
5-day plot - Water Temperature Water Temperature (WTMP): 17.4 °C
5-day plot - Wind Speed at 10 Meters Wind Speed at 10 meters (WSPD10M): 4 m/s
5-day plot - Wind Speed at 20 Meters Wind Speed at 20 meters (WSPD20M): 5 m/s
5-day plot -  Wind Speed, Wind Gust and Atmospheric Pressure Combined plot of Wind Speed, Gust, and Air Pressure
NOS Water Level Observation Network Water Level
Previous observations
TIME
(EDT)
5-day plot - Wind Direction
WDIR
 
5-day plot - Wind Speed
WSPD
m/s
5-day plot - Wind Gust
GST
m/s
5-day plot - Wave Height
WVHT
m
5-day plot - Dominant Wave Period
DPD
sec
5-day plot - Average Wave Period
APD
sec
5-day plot - Mean Wave Direction
MWD
 
5-day plot - Atmospheric Pressure
PRES
mb
5-day plot - Pressure Tendency
PTDY
mb
5-day plot - Air Temperature
ATMP
°C
5-day plot - Water Temperature
WTMP
°C
5-day plot - Dew Point
DEWP
°C
5-day plot - Salinity
SAL
psu
5-day plot - Visibility
VIS
km
5-day plot - Tide (above MLLW)
TIDE
m
2024-05-26 11:12 pmSSW 4.6 8.2----1000.9- 19.9 17.4----
2024-05-26 11:06 pm SW 5.7 10.8----1000.8- 19.9 17.4----
2024-05-26 11:00 pmSSW 4.1 7.2----1000.7 -0.8 20.0 17.4----
2024-05-26 10:54 pmSSW 4.1 8.8----1000.9- 20.0 17.4----
2024-05-26 10:48 pm SW 3.6 9.3----1001.1- 20.0 17.4----
2024-05-26 10:42 pmSSW 4.6 7.7----1001.3- 20.1 17.4----
2024-05-26 10:36 pmSSW 4.1 7.7----1001.5- 20.0 17.4----
2024-05-26 10:30 pm---------- 17.4----
2024-05-26 10:24 pm---------- 17.4----
2024-05-26 10:18 pmSSW 2.6 6.7----1001.4-------
2024-05-26 10:12 pm SW 4.1 6.7----1001.2-------
2024-05-26 10:06 pmSSW 2.6 5.7----1000.9-------
2024-05-26 10:00 pmSSW 2.1 4.6----1000.9 -0.7- 17.4----
2024-05-26 09:54 pm SW 1.5 4.1----1000.7-- 17.4----
2024-05-26 09:48 pmSSW 2.1 6.2----1000.5- 18.9 17.4----
2024-05-26 09:42 pm SW 0.5 4.6----1000.5- 18.9 17.4----
2024-05-26 09:36 pm W 0.5 3.1----1000.5- 18.9 17.4----
2024-05-26 09:30 pm SW 1.0 2.6----1000.5- 19.0 17.4----
2024-05-26 09:24 pmSSE 1.0 4.6----1000.7- 19.1 17.4----
2024-05-26 09:18 pmSSE 1.5 5.7----1000.8-- 17.4----
2024-05-26 09:12 pmESE 0.5 4.1----1000.8-- 17.4----
2024-05-26 09:06 pm N 0.5 4.1----1000.8-- 17.4----
2024-05-26 09:00 pmWSW 1.0 5.1----1000.7 -2.0- 17.4----
2024-05-26 08:54 pm S 1.5 4.1----1000.7-- 17.4----
2024-05-26 08:48 pm S 1.0 4.6----1000.7-- 17.4----
2024-05-26 08:42 pmSSE 1.5 5.1----1000.9-- 17.4----
2024-05-26 08:36 pm S 1.5 5.1----1001.0-- 17.4----
2024-05-26 08:30 pm S 1.5 4.6----1001.2- 20.9 17.4----
2024-05-26 08:24 pmSSW 1.5 10.3----1001.3- 20.9 17.4----
2024-05-26 08:18 pm S 3.6 6.7----1001.6-- 17.4----
2024-05-26 08:12 pm SW 1.5 6.2----1001.4-- 17.4----
2024-05-26 08:06 pmSSW 2.6 7.2----1001.5-- 17.4----
2024-05-26 08:00 pmSSW 1.5 4.1----1001.5 -2.7- 17.4----
2024-05-26 07:54 pm E 1.5 4.6----1001.4-- 17.4----
2024-05-26 07:48 pm-------1001.4-- 17.3----
2024-05-26 07:42 pm-------1001.0-- 17.3----
2024-05-26 07:36 pm-------1000.8-- 17.3----
2024-05-26 07:30 pm E 2.1 4.1----1000.5-- 17.3----
2024-05-26 07:24 pm W 0.5 4.1----1001.1-- 17.3----
2024-05-26 07:00 pm S 1.0 5.1----1001.6 -3.4 23.6 17.3----
2024-05-26 06:54 pmSSE 1.0 3.6----1001.6- 24.1 17.3----
2024-05-26 06:48 pmESE 1.0 3.1----1001.7- 24.6 17.3----
2024-05-26 06:42 pmSSE 1.0 3.6----1001.8- 25.3 17.3----
2024-05-26 06:36 pmSSE 1.0 3.6----1001.9- 25.7 17.3----
2024-05-26 06:30 pmESE 1.5 4.6----1002.1-- 17.3----
2024-05-26 06:24 pm S 1.0 3.1----1002.2-- 17.3----
2024-05-26 06:18 pm E 1.0 3.1----1002.4- 25.9 17.3----
2024-05-26 06:12 pm E 1.5 3.1----1002.7- 25.9 17.3----
2024-05-26 06:06 pm SE 1.0 2.6----1002.8- 26.0 17.3----
2024-05-26 06:00 pmSSE 1.5 3.6----1002.7 -3.9 26.0 17.3----
2024-05-26 05:54 pm E 0.5 4.6----1002.9- 26.1 17.3----
2024-05-26 05:48 pmESE 1.0 3.1----1003.0-- 17.3----
2024-05-26 05:42 pmESE 1.5 3.1----1003.0-- 17.3----
2024-05-26 05:36 pm E 0.5 2.6----1003.1-- 17.3----
2024-05-26 05:30 pm SE 1.0 2.6----1003.4- 26.2 17.3----
2024-05-26 05:24 pmENE 1.0 3.6----1003.6- 26.2 17.3----
2024-05-26 05:18 pm E 1.5 3.6----1003.8- 26.4 17.3----
2024-05-26 05:12 pm SE 1.5 3.1----1003.9- 26.3 17.3----
2024-05-26 05:06 pm SE 1.0 3.6----1004.1- 26.5 17.3----
2024-05-26 05:00 pm-------1004.2- 26.4 17.3----
2024-05-26 04:54 pm-------1004.3- 26.5 17.3----
2024-05-26 04:48 pm E 1.5 4.1----1004.6- 26.6 17.3----
2024-05-26 04:42 pm S 1.0 4.1----1004.6- 26.8 17.3----
2024-05-26 04:36 pmSSE 1.0 5.1----1004.7- 26.7 17.3----
2024-05-26 04:30 pm-------1004.9- 26.9 17.3----
2024-05-26 04:24 pm-------1004.9- 26.9 17.3----
2024-05-26 04:18 pm S 1.5 4.1----1005.0- 27.1 17.3----
2024-05-26 04:12 pmESE 1.0 2.6----1005.1- 26.8 17.3----
2024-05-26 04:06 pmSSW 0.5 3.6----1005.1- 27.1 17.3----
2024-05-26 04:00 pm SE 1.5 3.6----1005.0 -4.0- 17.3----
2024-05-26 03:54 pm E 1.5 3.1----1005.2-- 17.3----
2024-05-26 03:48 pm E 1.0 2.6----1005.5-- 17.3----
2024-05-26 03:42 pmESE 1.0 3.1----1005.6-- 17.3----
2024-05-26 03:36 pm E 1.5 4.6----1005.7-- 17.3----
2024-05-26 03:30 pmESE 2.1 4.1----1005.8- 27.4 17.3----
2024-05-26 03:24 pmSSE 1.0 2.6----1005.9- 27.5 17.3----
2024-05-26 03:18 pm E 1.0 4.6----1006.0-- 17.3----
2024-05-26 03:12 pm E 1.0 3.1----1006.1-- 17.3----
2024-05-26 03:06 pm E 1.0 3.6----1006.3-- 17.3----
2024-05-26 03:00 pmSSE 0.5 3.1----1006.6 -3.3 27.1 17.3----
2024-05-26 02:54 pm S 1.0 2.1----1006.6- 27.3 17.3----
2024-05-26 02:48 pm-------1006.7- 27.2 17.3----
2024-05-26 02:42 pm-------1006.9- 26.8 17.3----
2024-05-26 02:36 pm-------1007.1- 27.3 17.3----
2024-05-26 02:30 pmESE 0.5 2.6----1007.2- 26.9 17.3----
2024-05-26 02:24 pm E 1.0 3.1----1007.4- 27.0 17.3----
2024-05-26 02:18 pm E 1.0 2.6----1007.6- 26.9 17.3----
2024-05-26 02:12 pmESE 1.0 2.6----1007.8- 27.1 17.3----
2024-05-26 02:06 pmSSE 1.0 2.6----1007.9- 27.0 17.3----
2024-05-26 02:00 pm E 0.5 2.1------- 17.3----
2024-05-26 01:54 pmNNW 1.0 2.6------- 17.3----
2024-05-26 01:48 pmSSE 1.5 2.6----1008.5- 26.5 17.3----
2024-05-26 01:42 pm SW 1.0 2.6----1008.6- 26.5 17.3----
2024-05-26 01:36 pmSSW 0.5 2.6----1008.6- 26.5 17.3----
2024-05-26 01:30 pm E 0.5 3.6----1008.6-- 17.3----
2024-05-26 01:24 pm S 1.0 3.1----1008.8-- 17.3----
2024-05-26 01:18 pm SE 1.0 2.6----1008.8- 26.3 17.3----
2024-05-26 01:12 pm E 0.5 2.1----1008.9- 26.5 17.3----
2024-05-26 01:06 pmWSW 1.0 2.6----1009.0- 26.4 17.3----
2024-05-26 01:00 pmESE 1.0 4.1----1009.0 -1.4 26.0 17.3----
2024-05-26 12:54 pmESE 1.0 5.1----1009.1- 26.2 17.3----
2024-05-26 12:48 pm SE 1.0 2.6----1009.1- 25.6 17.3----
2024-05-26 12:42 pm SW 0.5 2.6----1009.3- 25.8 17.3----
2024-05-26 12:36 pmNNE 0.5 3.1----1009.3- 25.7 17.3----
2024-05-26 12:30 pm E 1.0 3.1----1009.4- 26.1 17.3----
2024-05-26 12:24 pm SW 0.5 3.1----1009.5- 25.7 17.3----
2024-05-26 12:18 pmESE 0.5 3.1----1009.5- 25.8 17.3----
2024-05-26 12:12 pmESE 1.0 2.6------------
2024-05-26 12:06 pm E 0.5 2.6----1009.8- 25.3 17.3----
2024-05-26 12:00 pm NE 0.5 3.1----1009.9 -0.9 25.5 17.3----
2024-05-26 11:54 am SW 0.5 2.6----1009.9- 25.5 17.3----
2024-05-26 11:48 amESE 1.5 2.6----1010.0- 25.2 17.3----
2024-05-26 11:42 amESE 1.0 2.6----1010.1- 25.4 17.3----
2024-05-26 11:36 am SE 0.5 2.6----1010.1- 25.5 17.3----
2024-05-26 11:30 amSSW 1.0 2.1----1010.1- 25.1 17.3----
2024-05-26 11:24 amESE 1.0 2.6----1010.2- 25.4 17.3----
2024-05-26 11:18 am E 1.0 2.6----1010.2- 24.9 17.3----
2024-05-26 11:12 amESE 0.5 2.6----1010.3- 25.0 17.3----
2024-05-26 11:06 am- 0.0 2.1----1010.3- 24.7 17.3----
2024-05-26 11:00 am SE 1.0 2.6----1010.2 -0.7 25.2 17.3----
2024-05-26 10:54 am SE 0.5 2.6----1010.3- 24.5 17.3----
2024-05-26 10:48 amENE 0.5 2.6----1010.2- 24.7 17.3----
2024-05-26 10:42 am E 1.5 3.1----1010.4- 24.5 17.3----
2024-05-26 10:36 am E 1.0 2.1----1010.4- 24.4 17.3----
2024-05-26 10:30 am E 1.5 2.6----1010.4- 24.6 17.3----
2024-05-26 10:24 am E 1.0 2.6----1010.3- 24.9 17.3----
2024-05-26 10:18 am- 0.0 3.6----1010.3- 24.3 17.3----
2024-05-26 10:12 amESE 0.5 2.6----1010.3- 24.2 17.3----
2024-05-26 10:06 amESE 1.0 2.6----1010.2- 24.1 17.3----
2024-05-26 10:00 amSSE 0.5 2.1----1010.4 -0.9 23.6 17.3----
2024-05-26 09:54 amESE 1.0 3.6----1010.5- 23.7 17.3----
2024-05-26 09:48 amESE 0.5 3.6----1010.6- 23.6 17.3----
2024-05-26 09:42 am E 1.0 2.6----1010.7- 23.5 17.3----
2024-05-26 09:36 am E 0.5 2.6----1010.9- 23.2 17.4----
2024-05-26 09:30 am- 0.0 1.5----1011.0-- 17.3----
2024-05-26 09:24 am E 1.0 2.1----1011.0-- 17.4----
2024-05-26 09:18 amSSW 0.5 1.5----1011.1-- 17.4----
2024-05-26 09:12 am- 0.0 1.0----1011.1-- 17.4----
2024-05-26 09:06 am- 0.0 2.1----1010.9-- 17.4----
2024-05-26 09:00 amENE 0.5 2.1----1010.8 -0.3- 17.4----
2024-05-26 08:54 amESE 1.0 2.6----1010.8-- 17.4----
2024-05-26 08:48 am- 0.0 2.1----1010.8- 22.0 17.3----
2024-05-26 08:42 amESE 0.5 2.1----1010.8- 21.7 17.4----
2024-05-26 08:36 am E 0.5 1.5----1010.8- 21.3 17.3----
2024-05-26 08:30 amESE 0.5 1.5----1011.0- 21.2 17.3----
2024-05-26 08:24 amESE 1.0 2.6----1010.9- 21.2 17.3----
2024-05-26 08:18 amSSE 0.5 2.1----1010.7- 20.9 17.3----
2024-05-26 08:12 am E 0.5 2.6----1010.6- 20.9 17.3----
2024-05-26 08:06 am- 0.0 2.1----1010.7- 20.7 17.3----
2024-05-26 08:00 am-------1010.9 -0.5 20.6-----
2024-05-26 07:54 am-------1010.9- 20.4-----
2024-05-26 07:48 amESE 0.5 2.1----1010.9- 19.7 17.3----
2024-05-26 07:42 am- 0.0 0.5----1010.9- 19.4 17.3----
2024-05-26 07:36 am- 0.0 1.0----1010.9- 19.2 17.3----
2024-05-26 07:30 am- 0.0 1.5----1011.1- 18.8 17.3----
2024-05-26 07:24 am- 0.0 1.0----1011.0- 18.4 17.3----
2024-05-26 07:18 am E 0.5 1.0----1011.0-- 17.3----
2024-05-26 07:12 am- 0.0 0.5----1011.2-- 17.3----
2024-05-26 07:06 am- 0.0 1.0----1011.4-- 17.3----
2024-05-26 07:00 amSSE 0.5 1.0----1011.3 +0.0- 17.3----
2024-05-26 06:54 am- 0.0 1.5----1011.2-- 17.3----
2024-05-26 06:48 am E 0.5 1.5----1011.2-- 17.3----
2024-05-26 06:42 am- 0.0 1.5----1011.5-- 17.3----
2024-05-26 06:36 amESE 0.5 1.0----1011.3-- 17.3----
2024-05-26 06:30 am- 0.0 1.0----1011.3- 16.7 17.3----
2024-05-26 06:24 amSSE 0.5 1.0----1011.4- 16.6 17.3----
2024-05-26 06:18 am- 0.0 1.0----1011.3-- 17.3----
2024-05-26 06:12 am- 0.0 1.0----1011.1-- 17.3----
2024-05-26 06:06 am SE 0.5 1.5----1011.0-- 17.3----
2024-05-26 06:00 am E 0.5 1.5----1011.1 +0.0 16.5 17.3----
2024-05-26 05:54 amSSE 1.0 2.1----1011.1- 16.6 17.3----
2024-05-26 05:48 am- 0.0 2.1----1010.9- 16.6 17.3----
2024-05-26 05:42 am SE 0.5 2.6----1010.8- 16.7 17.3----
2024-05-26 05:36 amSSE 0.5 1.0----1010.8- 16.7 17.3----
2024-05-26 05:30 amSSE 0.5 1.5----1010.9- 16.7 17.3----
2024-05-26 05:24 am SE 1.0 1.5----1011.0- 16.7 17.3----
2024-05-26 05:18 amESE 1.0 1.5----1011.2- 16.3 17.3----
2024-05-26 05:12 amESE 1.0 1.0----1011.4- 16.5 17.3----
2024-05-26 05:06 amESE 0.5 0.5----1011.4- 16.6 17.3----
2024-05-26 05:00 am- 0.0 0.5----1011.4 +0.5 16.6 17.3----
2024-05-26 04:54 am SE 0.5 1.0----1011.2- 16.5 17.3----
2024-05-26 04:48 am- 0.0 0.5----1011.3-- 17.3----
2024-05-26 04:42 am SE 0.5 1.0----1011.1-- 17.3----
2024-05-26 04:36 am SE 0.5 1.0----1011.1-- 17.3----
2024-05-26 04:30 am SE 0.5 1.0----1011.2- 16.4 17.3----
2024-05-26 04:24 am- 0.0 0.5----1011.1- 16.5 17.3----
2024-05-26 04:18 am SE 0.5 1.0----1011.0- 16.3 17.3----
2024-05-26 04:12 am- 0.0 1.0----1011.2- 16.4 17.3----
2024-05-26 04:06 amESE 0.5 1.0----1011.2- 16.3 17.3----
2024-05-26 04:00 amSSE 0.5 0.5----1011.3 +0.4 16.4 17.3----
2024-05-26 03:54 am- 0.0 0.5----1011.4- 16.5 17.3----
2024-05-26 03:48 am- 0.0 1.0----1011.4- 16.3 17.3----
2024-05-26 03:42 am- 0.0 1.0----1011.3- 16.3 17.3----
2024-05-26 03:36 am- 0.0 0.5----1011.3- 16.4 17.3----
2024-05-26 03:30 am- 0.0 0.5----1011.2- 16.3 17.3----
2024-05-26 03:24 am- 0.0 1.0----1011.1- 16.4 17.3----
2024-05-26 03:18 am E 0.5 1.0----1010.9- 16.6 17.3----
2024-05-26 03:12 am- 0.0 0.5----1010.8- 16.6 17.3----
2024-05-26 03:06 am- 0.0 0.5----1010.9- 16.7 17.3----
2024-05-26 03:00 am- 0.0 0.5----1010.9 +0.3 16.7 17.3----
2024-05-26 02:54 am- 0.0 0.5----1010.8- 16.8 17.3----
2024-05-26 02:48 am- 0.0 0.5----1010.8- 16.9 17.3----
2024-05-26 02:42 amESE 0.5 0.5----1010.8- 16.9 17.3----
2024-05-26 02:36 am- 0.0 0.5----1010.8- 16.9 17.3----
2024-05-26 02:30 amESE 0.5 0.5----1010.9- 16.9 17.3----
2024-05-26 02:24 am- 0.0 0.5----1011.1- 17.0 17.3----
2024-05-26 02:18 am- 0.0 0.0----1011.0- 16.9 17.3----
2024-05-26 02:12 am- 0.0 0.5----1010.9- 17.0 17.3----
2024-05-26 02:06 am- 0.0 0.5----1010.9- 17.1 17.3----
2024-05-26 02:00 am- 0.0 0.5----1010.9 +0.5 17.1 17.3----
2024-05-26 01:54 amSSE 0.5 0.5----1010.9- 17.1 17.3----
2024-05-26 01:48 am- 0.0 0.5----1011.0- 17.1 17.3----
2024-05-26 01:42 am- 0.0 0.5----1010.9- 17.2 17.3----
2024-05-26 01:36 am- 0.0 0.5----1010.9- 17.2 17.3----
2024-05-26 01:30 am- 0.0 0.5----1010.9- 17.1 17.3----
2024-05-26 01:24 am- 0.0 0.5----1010.9- 17.2 17.3----
2024-05-26 01:18 am- 0.0 0.5----1010.9- 17.4 17.3----
2024-05-26 01:12 am- 0.0 0.5----1010.9- 17.5 17.3----
2024-05-26 01:06 am- 0.0 0.5----1010.9- 17.6 17.3----
2024-05-26 01:00 am- 0.0 0.5----1010.9 +1.0 17.8 17.3----
2024-05-26 12:54 am- 0.0 0.5----1011.0- 17.8 17.3----
2024-05-26 12:48 am- 0.0 0.5----1011.0- 17.9 17.3----
2024-05-26 12:42 am- 0.0 0.5----1011.0- 17.8 17.2----
2024-05-26 12:36 am- 0.0 0.5----1010.9- 17.9 17.3----
2024-05-26 12:30 am- 0.0 0.5----1010.9- 18.0 17.2----
2024-05-26 12:24 am- 0.0 0.5----1010.8- 18.1 17.2----
2024-05-26 12:18 am- 0.0 0.0----1010.7- 18.1 17.2----
2024-05-26 12:12 am- 0.0 0.5----1010.7- 18.2 17.2----
2024-05-26 12:06 am- 0.0 0.5----1010.7- 18.2 17.2----
2024-05-26 12:00 am- 0.0 0.5----1010.6 +1.5 18.3 17.2----
2024-05-25 11:54 pm- 0.0 0.5----1010.7- 18.4 17.2----
2024-05-25 11:48 pm- 0.0 0.5----1010.7- 18.4 17.2----
2024-05-25 11:42 pm- 0.0 0.5----1010.7- 18.6 17.2----
2024-05-25 11:36 pm- 0.0 0.5----1010.6- 18.6 17.2----
2024-05-25 11:30 pm- 0.0 0.5----1010.6- 18.7 17.2----
2024-05-25 11:24 pm- 0.0 0.5----1010.6- 18.7 17.2----
2024-05-25 11:18 pm- 0.0 0.5----1010.6- 18.8 17.2----
2024-05-25 11:12 pm- 0.0 0.5----1010.6- 18.8 17.2----
2024-05-25 11:06 pm- 0.0 0.5----1010.5- 18.8 17.2----
2024-05-25 11:00 pm- 0.0 0.5----1010.4 +1.6 18.8 17.2----
2024-05-25 10:54 pm- 0.0 0.5----1010.4- 18.9 17.2----